EW8926 Weather Reports


time (UTC)temp
C
wind
direction
speed
KPH
gust
KPH
rain 1hr
cm
rain 24hr
cm
rain mn
cm
humidity
%
barometer
mb
20260506184605 15 146 8.0 16.1 0.00 1.14 1.14 72 1009.4
20260506183604 15 149 9.7 12.9 0.00 1.14 1.14 72 1009.2
20260506183106 15 135 8.0 12.9 0.00 1.14 1.14 72 1009.2
20260506182603 15 155 8.0 20.9 0.00 1.14 1.14 72 1009.1
20260506182104 15 141 8.0 11.3 0.00 1.14 1.14 72 1009.0
20260506181104 16 137 8.0 12.9 0.00 1.14 1.14 71 1008.8
20260506180604 16 148 8.0 14.5 0.00 1.17 1.14 71 1008.6
20260506180104 16 146 9.7 14.5 0.00 1.17 1.14 70 1008.6
20260506175604 16 142 9.7 12.9 0.00 1.17 1.14 70 1008.5
20260506175115 16 138 9.7 25.7 0.00 1.17 1.14 69 1008.4
20260506174604 16 130 9.7 19.3 0.00 1.17 1.14 69 1008.4
20260506174104 16 146 9.7 25.7 0.00 1.17 1.14 68 1008.2
20260506173606 16 147 11.3 19.3 0.00 1.17 1.14 68 1008.1
20260506173104 16 141 11.3 16.1 0.00 1.17 1.14 67 1008.1
20260506172606 16 133 11.3 24.1 0.00 1.17 1.14 67 1008.0
20260506172105 16 138 11.3 24.1 0.00 1.17 1.14 66 1007.9
20260506171104 17 129 9.7 25.7 0.00 1.17 1.14 65 1007.8
20260506170104 17 154 9.7 24.1 0.00 1.17 1.14 64 1007.8
20260506165606 17 152 9.7 20.9 0.00 1.17 1.14 64 1007.9
20260506164605 17 141 9.7 19.3 0.00 1.17 1.14 62 1007.9
20260506163604 17 133 9.7 22.5 0.00 1.17 1.14 61 1007.8
20260506163103 18 145 9.7 20.9 0.00 1.17 1.14 60 1007.8
20260506162604 18 150 9.7 22.5 0.00 1.17 1.14 60 1007.9
20260506162107 18 141 9.7 24.1 0.00 1.17 1.14 60 1007.9
20260506161105 18 153 9.7 22.5 0.00 1.17 1.14 57 1007.8
20260506160605 18 150 9.7 24.1 0.00 1.17 1.14 57 1007.8
20260506160104 18 127 9.7 22.5 0.00 1.17 1.14 58 1007.8
20260506155603 19 124 9.7 33.8 0.00 1.17 1.14 58 1007.9
20260506155105 19 151 8.0 14.5 0.00 1.17 1.14 58 1007.9
20260506154605 19 145 8.0 19.3 0.00 1.17 1.14 56 1007.9
20260506154107 19 133 9.7 20.9 0.00 1.17 1.14 57 1007.9
20260506153104 18 148 11.3 29.0 0.00 1.17 1.14 57 1007.9
20260506152603 18 151 11.3 19.3 0.00 1.17 1.14 57 1007.8
20260506152104 18 128 11.3 19.3 0.00 1.17 1.14 57 1007.8
20260506151104 19 145 11.3 22.5 0.00 1.17 1.14 57 1007.9
20260506145105 19 152 11.3 29.0 0.00 1.17 1.14 57 1008.0
20260506144104 20 142 9.7 27.4 0.00 1.17 1.14 57 1008.0
20260506143605 20 146 9.7 22.5 0.00 1.17 1.14 56 1008.0
20260506142604 20 129 11.3 20.9 0.00 1.17 1.14 57 1008.0
20260506142104 20 153 11.3 29.0 0.00 1.17 1.14 57 1008.0
20260506141106 20 155 9.7 24.1 0.00 1.17 1.14 57 1008.1
20260506140611 20 122 9.7 25.7 0.00 1.17 1.14 57 1008.1
20260506135604 21 167 9.7 25.7 0.00 1.17 1.14 53 1008.2
20260506135103 21 141 9.7 19.3 0.00 1.17 1.14 54 1008.3
20260506134604 20 151 11.3 22.5 0.00 1.17 1.14 53 1008.3
20260506133604 21 156 8.0 22.5 0.00 1.17 1.14 53 1008.4
20260506133115 21 149 9.7 19.3 0.00 1.17 1.14 53 1008.4
20260506132603 21 161 9.7 19.3 0.00 1.17 1.14 55 1008.3
20260506132105 21 160 9.7 19.3 0.00 1.17 1.14 55 1008.3
20260506131604 21 142 9.7 20.9 0.00 1.17 1.14 56 1008.3
20260506131103 21 161 8.0 19.3 0.00 1.17 1.14 56 1008.2
20260506130604 21 156 8.0 16.1 0.00 1.17 1.14 56 1008.2
20260506125605 21 136 8.0 16.1 0.00 1.17 1.14 56 1008.3
20260506125104 21 174 8.0 24.1 0.00 1.17 1.14 51 1008.3
20260506124605 21 131 8.0 14.5 0.00 1.17 1.14 52 1008.3
20260506124106 21 162 8.0 16.1 0.00 1.17 1.14 53 1008.3
20260506123604 21 148 8.0 14.5 0.00 1.17 1.14 57 1008.3
20260506122104 21 168 8.0 14.5 0.00 1.17 1.14 57 1008.2
20260506121609 21 172 8.0 19.3 0.00 1.17 1.14 52 1008.2
20260506121105 21 153 8.0 20.9 0.00 1.17 1.14 53 1008.2
20260506120604 21 148 8.0 16.1 0.00 1.17 1.14 53 1008.2
20260506115103 21 185 8.0 20.9 0.00 1.17 1.14 55 1008.3
20260506114607 21 132 9.7 16.1 0.00 1.17 1.14 54 1008.3
20260506114105 21 141 8.0 12.9 0.00 1.17 1.14 56 1008.4
20260506113606 21 146 8.0 27.4 0.00 1.17 1.14 55 1008.4
20260506113120 21 156 9.7 14.5 0.00 1.17 1.14 55 1008.4
20260506112604 21 153 9.7 16.1 0.00 1.17 1.14 55 1008.4
20260506112104 21 145 8.0 22.5 0.00 1.17 1.14 54 1008.4
20260506111611 21 169 8.0 19.3 0.00 1.17 1.14 56 1008.4
20260506111104 21 160 8.0 19.3 0.00 1.17 1.14 54 1008.5
20260506110604 21 148 8.0 14.5 0.00 1.17 1.14 56 1008.5
20260506110105 21 157 8.0 12.9 0.00 1.17 1.14 57 1008.5
20260506105604 21 166 8.0 20.9 0.00 1.17 1.14 54 1008.6
20260506105104 21 169 8.0 25.7 0.00 1.17 1.14 56 1008.6
20260506104104 21 161 8.0 16.1 0.00 1.17 1.14 58 1008.7
20260506103604 21 133 8.0 14.5 0.00 1.17 1.14 59 1008.7
20260506103104 21 175 8.0 14.5 0.00 1.17 1.14 59 1008.7
20260506102604 21 160 8.0 14.5 0.00 1.17 1.14 60 1008.7
20260506101105 20 163 8.0 16.1 0.00 1.17 1.14 66 1008.6
20260506100606 19 172 8.0 12.9 0.00 1.17 1.14 74 1008.6
20260506100104 19 150 4.8 22.5 0.00 1.17 1.14 74 1008.6
20260506095104 18 144 3.2 9.7 0.00 1.17 1.14 80 1008.8
20260506094604 18 314 3.2 4.8 0.00 1.17 1.14 80 1008.8
20260506093604 17 126 3.2 4.8 0.00 1.17 1.14 83 1008.8
20260506093104 17 358 3.2 8.0 0.00 1.17 1.14 84 1008.8
20260506092604 17 311 3.2 8.0 0.00 1.17 1.14 85 1008.8
20260506091604 17 309 3.2 4.8 0.00 1.17 1.14 85 1008.8
20260506091106 17 300 3.2 8.0 0.00 1.17 1.14 86 1008.8
20260506090604 17 322 3.2 9.7 0.00 1.17 1.14 85 1008.8
20260506090104 17 303 3.2 9.7 0.00 1.17 1.14 84 1008.8
20260506085104 16 76 3.2 4.8 0.00 1.17 1.14 87 1008.8
20260506084607 16 108 3.2 8.0 0.00 1.17 1.14 88 1008.8
20260506084104 16 76 3.2 8.0 0.00 1.17 1.14 88 1008.9
20260506083605 16 134 3.2 8.0 0.00 1.17 1.14 91 1009.0
20260506083104 15 193 3.2 8.0 0.00 1.17 1.14 92 1009.0
20260506082604 15 154 3.2 9.7 0.00 1.17 1.14 94 1009.0
20260506082104 15 6 3.2 8.0 0.00 1.17 1.14 97 1009.0
20260506081604 15 213 3.2 11.3 0.03 1.17 1.14 97 1009.0
20260506081104 14 315 1.6 8.0 0.05 1.17 1.14 99 1009.1
20260506080104 13 282 0.0 0.0 0.08 1.17 1.14 98 1009.1
20260506073106 12 324 1.6 0.0 0.28 1.17 1.14 98 1009.0
20260506072604 12 324 1.6 0.0 0.41 1.17 1.14 98 1009.0
20260506072104 12 325 1.6 0.0 0.46 1.17 1.14 98 1009.0
20260506071606 12 355 0.0 8.0 0.51 1.14 1.12 98 1009.0
20260506071104 12 94 3.2 3.2 0.51 1.12 1.09 98 1008.9
20260506070604 12 44 3.2 3.2 0.53 1.12 1.09 98 1008.8
20260506070107 12 44 3.2 3.2 0.53 1.09 1.07 98 1008.8
20260506061604 12 311 3.2 4.8 0.15 0.64 0.61 98 1009.2
20260506061104 12 308 1.6 8.0 0.13 0.61 0.58 98 1009.4
20260506060604 12 301 1.6 8.0 0.10 0.58 0.56 98 1009.6
20260506060104 12 329 1.6 3.2 0.08 0.56 0.53 98 1009.6
20260506050604 12 334 1.6 4.8 0.00 0.66 0.46 98 1009.3
20260506050107 12 343 1.6 4.8 0.00 0.69 0.46 98 1009.3
20260506045104 12 344 0.0 3.2 0.00 0.76 0.46 98 1009.7
20260506044604 12 64 0.0 3.2 0.00 0.81 0.46 98 1009.7
20260506044105 12 99 0.0 3.2 0.00 0.86 0.46 98 1009.9
20260506043604 12 99 0.0 3.2 0.00 0.91 0.46 98 1010.0
20260506043104 12 99 0.0 3.2 0.00 0.97 0.46 98 1010.0
20260506042605 12 99 0.0 3.2 0.00 1.02 0.46 98 1009.9
20260506042104 11 54 0.0 3.2 0.00 1.09 0.46 98 1009.9
20260506041604 11 315 0.0 1.6 0.00 1.14 0.46 98 1009.9
20260506041104 11 315 1.6 0.0 0.00 1.19 0.46 98 1010.0
20260506040603 11 315 1.6 3.2 0.00 1.24 0.46 98 1010.0
20260506035604 12 315 0.0 3.2 0.03 1.27 0.46 98 1010.0
20260506035103 12 315 3.2 3.2 0.03 1.32 0.46 98 1010.0
20260506034604 12 315 3.2 3.2 0.03 1.37 0.46 98 1010.0
20260506033606 12 313 3.2 4.8 0.05 1.42 0.46 98 1010.2
20260506033104 12 339 1.6 8.0 0.08 1.45 0.46 98 1010.2
20260506032103 12 339 1.6 3.2 0.18 1.50 0.46 98 1010.1
20260506031604 12 339 1.6 3.2 0.20 1.50 0.46 98 1010.1
20260506031107 12 340 1.6 4.8 0.25 1.55 0.46 98 1010.3
20260506030604 11 61 1.6 4.8 0.33 1.55 0.46 98 1010.5
20260506030104 11 61 3.2 4.8 0.36 1.55 0.46 98 1010.5
20260506025104 11 126 4.8 3.2 0.38 1.55 0.43 98 1010.7
20260506024605 11 126 4.8 8.0 0.38 1.57 0.43 98 1010.7
20260506024104 11 128 4.8 8.0 0.36 1.55 0.41 98 1011.1
20260506023604 11 128 3.2 8.0 0.36 1.55 0.41 98 1011.4
20260506023104 11 120 3.2 8.0 0.33 1.50 0.38 98 1011.4
20260506022604 11 128 3.2 8.0 0.28 1.47 0.33 98 1011.6
20260506021604 12 125 3.2 4.8 0.20 1.45 0.25 98 1011.7
20260506021104 12 136 1.6 9.7 0.20 1.45 0.20 98 1011.8
20260506020606 12 139 0.0 9.7 0.13 1.37 0.13 98 1011.9
20260506020104 12 107 0.0 0.0 0.10 1.37 0.10 98 1011.9
20260506015604 12 126 0.0 0.0 0.05 1.32 0.05 98 1011.8
20260506015104 12 126 0.0 0.0 0.05 1.35 0.05 98 1011.8
20260506014603 11 126 0.0 0.0 0.05 1.35 0.05 98 1011.8
20260506014104 11 126 0.0 0.0 0.05 1.35 0.05 98 1011.8
20260506013103 11 126 0.0 0.0 0.05 1.40 0.05 97 1011.8
20260506012604 11 126 0.0 0.0 0.05 1.40 0.05 98 1011.9
20260506011605 11 126 0.0 0.0 0.05 1.42 0.05 98 1012.0
20260506010104 11 126 0.0 0.0 0.00 1.42 0.00 98 1012.2
20260506005604 11 126 0.0 0.0 0.00 1.42 0.00 98 1012.1
20260506005104 11 126 0.0 0.0 0.00 1.42 0.00 98 1012.1
20260506004604 11 126 0.0 0.0 0.00 1.45 0.00 98 1012.1
20260506004104 11 126 0.0 0.0 0.00 1.45 0.00 98 1012.2
20260506003604 11 126 0.0 0.0 0.00 1.45 0.00 98 1012.2
20260506003104 11 126 0.0 0.0 0.00 1.45 0.00 98 1012.2
20260506002104 11 126 0.0 0.0 0.00 1.45 0.00 97 1012.4
20260506001604 11 126 0.0 0.0 0.00 1.45 0.00 97 1012.4
20260506001104 11 126 0.0 0.0 0.00 1.45 0.00 97 1012.6
20260506000606 11 126 0.0 0.0 0.00 1.45 0.00 97 1012.7
20260506000106 11 126 0.0 0.0 0.00 1.45 0.00 97 1012.7
20260505235104 11 126 0.0 0.0 0.00 1.45 0.00 97 1012.7
20260505234605 11 126 0.0 0.0 0.00 1.45 0.00 96 1012.7
20260505234104 11 126 0.0 0.0 0.00 1.45 0.00 96 1012.7
20260505233604 11 126 0.0 0.0 0.00 1.45 0.00 96 1012.7
20260505233105 11 126 0.0 0.0 0.00 1.45 0.00 96 1012.7
20260505232604 11 125 0.0 0.0 0.00 1.45 0.00 96 1012.8
20260505232104 11 125 0.0 0.0 0.00 1.45 0.00 96 1012.8
20260505231604 11 125 0.0 0.0 0.00 1.45 0.00 96 1012.8
20260505231105 11 125 0.0 0.0 0.00 1.45 0.00 96 1012.9
20260505230605 11 125 0.0 0.0 0.00 1.45 0.00 96 1012.9
20260505225603 12 125 0.0 0.0 0.00 1.45 0.00 96 1013.0
20260505225104 12 125 0.0 0.0 0.00 1.45 0.00 96 1013.1
20260505224104 12 125 0.0 0.0 0.00 1.45 0.00 96 1013.2
20260505223604 12 125 0.0 0.0 0.00 1.45 0.00 95 1013.2
20260505222604 12 125 0.0 0.0 0.00 1.45 0.00 95 1013.2
20260505222104 12 125 0.0 0.0 0.00 1.45 0.00 95 1013.2
20260505221103 12 125 0.0 0.0 0.00 1.45 0.00 95 1013.3
20260505220105 12 125 0.0 0.0 0.00 1.45 0.00 96 1013.4
20260505215107 12 125 0.0 0.0 0.00 1.45 1.45 95 1013.5
20260505214604 12 125 0.0 0.0 0.00 1.45 1.45 95 1013.5
20260505213604 12 125 0.0 0.0 0.00 1.45 1.45 95 1013.6
20260505213104 12 125 0.0 0.0 0.00 1.45 1.45 95 1013.6
20260505212104 12 125 0.0 0.0 0.00 1.45 1.45 95 1013.6
20260505211604 12 125 0.0 0.0 0.00 1.45 1.45 95 1013.6
20260505205103 12 125 0.0 0.0 0.00 1.45 1.45 94 1013.8
20260505204604 12 125 0.0 0.0 0.00 1.45 1.45 94 1013.8
20260505203604 13 125 0.0 0.0 0.00 1.45 1.45 93 1013.8
20260505203104 13 125 0.0 0.0 0.00 1.45 1.45 93 1013.8
20260505202604 13 125 0.0 0.0 0.00 1.45 1.45 92 1013.7
20260505202104 13 125 0.0 0.0 0.00 1.45 1.45 92 1013.7
20260505201105 13 125 0.0 0.0 0.00 1.45 1.45 92 1013.8
20260505200104 13 125 0.0 0.0 0.00 1.45 1.45 92 1013.9
20260505195111 13 125 0.0 0.0 0.00 1.45 1.45 91 1013.7
20260505194604 13 125 0.0 0.0 0.00 1.45 1.45 91 1013.7
20260505193619 13 125 0.0 0.0 0.00 1.45 1.45 91 1013.7
20260505191604 13 125 0.0 0.0 0.00 1.45 1.45 91 1013.6
20260505191107 13 125 0.0 0.0 0.00 1.45 1.45 90 1013.6
20260505190603 13 125 0.0 0.0 0.03 1.45 1.45 89 1013.6
20260505190104 14 125 0.0 0.0 0.03 1.45 1.45 90 1013.6
20260505185607 14 125 0.0 0.0 0.03 1.45 1.45 90 1013.6